SCP
0 0 0 0 0 0 0 0 0 0 0 0 0 0 0 0 0 0 0 0 0 0 0 0 0 0 0 0 0 0 0 0 0 0 0 0 0 0 0 0 0 0 0 0 1
0 0 0 0 0 0 0 0 0 0 0 0 0 0 0 0 0 0 0 0 0 0 0 0 0 0 0 0 0 0 0 0 0 0 0 0 0 0 0 0 0 0 0 0 -0
0 0 0 0 0 0 0 0 0 0 0 0 0 0 0 0 0 0 0 0 0 0 0 0 0 0 0 0 0 0 0 0 0 0 0 0 0 0 0 0 0 0 0 0 0
0 0 0 0 0 0 0 0 0 0 0 0 0 0 0 0 0 0 0 0 0 0 0 0 0 0 0 0 0 0 0 0 0 0 0 0 0 0 0 0 0 0 0 0 0
0 0 0 0 0 0 0 0 0 0 0 0 0 0 0 0 0 0 0 0 0 0 0 0 0 0 0 0 0 0 0 0 0 0 0 0 0 0 0 0 0 0 0 0 0
0 0 0 0 0 0 0 0 0 0 0 0 0 0 0 0 0 0 0 0 0 0 0 0 0 0 0 0 0 0 0 0 0 0 0 -0 0 0 0 0 0 0 0 0 0
0 0 0 0 0 0 0 0 0 0 0 0 0 0 0 0 0 0 0 0 0 0 0 0 0 0 0 0 0 0 0 0 0 0 -0 0 0 0 -0 0 0 0 0 0 0
0 0 0 0 0 0 0 0 0 0 0 0 0 0 0 0 0 0 0 0 0 0 0 0 0 0 0 0 0 0 0 0 0 0 0 0 0 0 -0 -0 0 0 0 0 0
0 0 0 0 0 0 0 0 0 0 0 0 0 0 0 0 0 0 0 0 0 0 0 0 0 0 0 0 0 0 0 0 0 0 0 0 0 -0 0 -0 0 0 0 0 0
0 0 0 0 0 0 0 0 -0 0 0 0 0 0 0 0 0 0 0 0 0 0 0 0 0 0 0 0 0 0 0 0 0 0 0 0 -0 -0 -0 -0 -0 -0 0 0 0
0 0 0 0 0 0 0 0 0 0 0 0 0 0 0 0 0 0 0 0 0 0 0 0 0 0 0 0 0 0 0 0 0 0 0 0 -0 -0 -0 -0 -0 -0 -0 0 0
0 0 0 0 0 0 0 0 0 0 0 0 0 0 -0 0 0 0 0 0 0 0 0 0 0 0 0 0 0 0 0 0 0 0 0 0 0 0 0 -0 0 0 -0 0 0
0 0 0 0 0 0 0 0 0 0 0 0 0 0 0 0 0 0 0 0 0 0 0 0 0 0 0 0 0 0 0 0 0 0 0 -0 0 0 0 0 0 -0 0 0 0
0 0 0 0 -0 0 0 0 0 0 0 0 0 0 0 0 0 0 -0 0 0 0 0 0 0 0 0 0 0 0 0 0 0 0 0 0 -0 0 0 0 0 0 0 0 0
0 0 0 0 0 0 0 0 0 0 0 0 0 0 0 0 0 0 0 -0 0 0 0 0 0 0 0 0 0 0 0 0 0 0 0 0 0 0 0 -0 0 0 0 0 0
0 0 0 0 0 0 0 0 0 0 0 0 0 0 0 0 0 0 0 -0 -0 0 0 0 0 0 0 0 0 0 0 0 0 0 0 0 0 0 0 0 0 0 0 0 0
0 0 0 0 0 0 0 0 0 0 0 0 0 0 0 0 0 0 0 0 0 0 0 0 0 0 0 0 0 0 0 0 0 0 0 0 0 0 0 0 0 0 0 0 0
0 0 0 0 0 0 0 0 0 0 0 0 0 0 0 0 -0 -0 -0 -0 0 0 0 0 0 0 0 0 0 0 0 0 0 0 0 0 0 0 0 0 0 0 0 0 0
0 0 0 0 0 0 0 0 0 0 0 0 0 0 0 0 0 0 -0 -0 -0 -0 0 0 0 0 0 0 0 0 0 0 0 0 0 0 0 0 0 0 0 0 0 0 0
0 0 0 0 0 0 0 -0 0 0 0 0 0 0 0 0 0 0 0 0 0 -0 0 0 0 0 0 0 0 0 0 0 0 0 0 0 0 0 0 0 0 0 0 0 0
0 0 0 0 0 0 0 0 0 0 0 0 0 0 0 0 0 0 0 0 0 0 0 -0 0 0 0 0 0 0 0 0 0 0 0 0 0 0 0 0 0 0 0 0 0
0 0 0 0 0 0 0 0 0 0 0 0 0 0 -0 0 0 0 0 0 0 0 0 0 0 0 0 0 0 0 0 0 0 0 0 0 0 0 0 0 0 0 0 0 0
0 0 0 0 0 0 0 0 0 0 0 0 0 0 0 -0 -0 -0 0 0 0 0 0 0 0 0 0 0 0 0 0 0 0 0 0 0 0 0 0 0 0 0 0 0 0
0 0 0 0 0 0 0 0 0 0 0 0 0 0 0 -0 0 0 0 0 0 0 0 0 0 0 0 0 0 0 0 0 0 0 0 0 0 0 0 0 0 0 0 0 0
0 0 0 0 0 0 0 0 0 0 0 0 0 0 0 0 0 -0 0 0 0 0 0 0 0 0 0 0 0 0 0 0 0 0 0 0 0 0 0 0 0 0 0 0 0
0 0 0 0 0 0 0 0 0 0 0 0 0 0 0 0 0 0 0 0 0 0 0 0 0 0 0 0 0 0 0 0 0 0 0 0 0 0 0 0 0 0 0 0 0
0 0 0 0 0 0 0 0 0 0 0 0 0 0 0 0 0 0 0 0 0 0 0 0 0 0 0 0 0 0 0 0 0 0 0 0 0 0 0 0 0 0 0 0 0
Wind_Speed_500mb
29 29 29 31 33 33 32 32 32 33 35 38 42 40 38 39 42 43 44 24 22 20 27 16 33 33 24 23 18 17 17 26 34 31 29 10 25 32 37 28 29 27 19 19 9
31 30 30 30 30 32 34 34 33 33 33 34 37 39 40 44 47 53 42 36 36 31 30 30 34 36 30 30 20 27 23 30 17 18 23 31 29 27 32 33 41 35 16 2 6
34 32 31 32 33 34 33 34 36 38 38 39 38 37 35 36 35 16 10 23 33 41 29 27 29 34 27 26 29 23 29 19 19 30 31 36 40 37 37 40 42 36 23 10 8
34 34 34 35 35 35 37 38 37 39 41 44 43 41 37 25 14 9 8 9 34 41 32 29 34 32 24 23 29 20 27 30 25 25 32 37 41 42 42 53 47 44 25 32 29
36 34 34 36 39 40 40 40 43 44 43 45 47 46 33 21 47 33 18 7 33 39 39 38 35 31 26 23 23 30 25 27 33 37 41 44 45 44 56 53 54 57 50 50 48
37 35 37 39 42 42 43 45 46 47 45 50 53 39 19 36 22 33 32 31 25 35 35 36 22 26 15 21 29 14 23 29 32 37 34 39 41 43 38 24 49 66 70 63 55
41 38 38 42 45 46 47 49 50 51 54 50 37 22 28 59 17 22 25 38 34 33 27 33 21 24 16 14 19 20 24 28 34 40 30 19 31 47 65 59 57 60 57 59 60
42 42 42 45 48 49 51 51 52 59 49 35 22 21 28 21 33 36 24 28 32 32 23 27 25 24 19 4 17 26 21 22 11 14 28 15 26 30 29 42 54 61 57 58 60
43 44 45 47 51 53 55 55 57 39 21 13 19 21 22 18 37 42 41 24 32 27 20 31 24 22 18 24 23 20 20 17 11 5 6 21 26 20 13 25 36 49 49 50 54
48 49 50 50 52 54 58 58 34 9 5 18 6 14 25 10 15 28 48 36 39 35 30 27 24 19 21 23 25 26 25 17 15 14 9 16 33 34 29 25 32 38 41 43 49
49 51 52 50 52 54 59 36 4 10 25 26 21 20 8 6 12 26 56 49 36 42 27 37 24 33 38 35 29 9 16 19 21 16 20 28 24 29 27 20 29 35 35 37 43
52 54 52 51 52 56 39 7 12 15 30 43 52 50 41 17 15 25 63 37 42 35 26 19 33 27 21 26 25 21 21 24 23 12 10 17 29 28 20 16 13 21 24 26 39
59 59 57 56 54 39 14 34 21 10 18 20 28 38 39 33 19 44 68 46 40 37 33 25 5 25 28 25 24 25 26 24 26 22 25 29 31 29 14 13 6 12 10 12 28
61 60 57 60 24 15 41 13 11 13 12 17 14 12 26 23 18 45 68 51 28 36 34 28 21 22 33 29 26 26 24 26 28 26 21 10 22 9 3 12 11 0 7 9 14
64 61 58 47 57 33 13 9 5 6 12 12 14 8 26 29 22 46 64 51 32 28 24 25 24 33 28 32 26 26 17 19 25 26 27 30 18 22 5 22 14 5 6 15 15
63 63 59 50 33 30 18 9 8 13 13 8 10 13 21 35 12 38 48 47 39 24 34 29 26 26 35 31 21 6 15 18 19 23 26 32 31 24 19 13 5 2 11 15 17
61 55 54 48 25 16 19 14 12 16 6 3 5 11 18 26 28 19 33 38 27 32 33 27 26 23 17 22 29 19 17 15 21 21 23 13 15 23 11 5 5 9 12 15 15
64 55 45 29 21 14 30 15 19 10 12 8 7 7 15 22 33 41 48 40 45 38 21 25 27 36 30 36 27 32 27 21 19 20 20 16 14 10 10 7 2 4 7 12 17
63 43 21 9 23 36 24 21 12 7 8 3 10 10 8 11 14 33 33 45 41 36 22 23 25 11 16 34 38 32 18 28 30 18 18 12 19 12 16 14 8 5 8 14 20
58 35 7 18 22 41 17 30 11 15 16 9 9 8 4 13 23 27 31 10 24 33 37 18 8 25 22 14 14 30 12 21 20 33 34 21 16 15 21 16 8 7 9 14 17
28 19 12 8 31 32 19 24 17 27 10 11 10 10 6 12 17 2 15 11 2 17 23 23 19 16 17 23 20 17 22 21 18 11 21 23 5 22 14 5 7 7 9 11 15
18 8 10 25 16 25 23 15 4 20 6 6 19 7 12 12 6 15 8 10 7 10 21 10 9 14 22 8 5 11 19 14 17 27 15 19 14 10 8 4 4 8 8 9 8
27 12 11 15 11 19 22 19 19 13 10 11 13 17 9 16 9 19 12 3 7 6 10 13 11 15 11 24 18 20 23 19 12 9 23 19 8 10 13 5 5 6 9 2 3
13 8 6 14 14 19 23 24 14 6 6 5 9 13 14 14 9 13 14 6 4 10 10 4 12 12 2 6 4 22 21 26 23 19 25 25 24 21 12 6 8 10 17 20 14
6 5 4 7 6 19 18 21 16 8 3 8 11 25 11 7 9 10 9 16 8 6 5 2 11 10 2 1 3 5 12 19 21 21 22 21 24 20 21 25 32 39 36 36 35
10 12 20 35 20 19 13 18 17 9 7 15 14 15 7 3 3 0 4 7 2 6 5 1 9 12 22 8 17 25 28 30 31 30 31 30 32 28 20 24 25 23 28 31 33
11 14 12 20 12 16 6 18 14 7 3 12 11 14 12 11 8 7 7 7 6 2 7 7 9 10 18 4 12 21 31 35 32 27 21 24 8 15 12 12 10 9 12 11 11
Wind_Direction_500mb
333 328 324 321 320 318 315 312 310 308 308 310 311 311 310 307 303 298 278 273 256 246 223 187 180 194 196 207 210 217 243 243 241 242 254 228 252 250 256 262 245 249 274 305 271
340 336 332 327 322 318 317 315 312 309 307 305 304 307 310 313 308 285 292 252 238 221 192 167 168 174 189 204 203 214 231 246 260 275 259 268 257 263 266 253 241 238 218 15 103
339 337 335 332 328 324 320 314 311 310 308 307 306 303 304 315 307 271 248 253 225 196 187 189 180 175 197 196 203 216 248 255 233 247 257 266 265 258 253 254 242 243 209 244 228
334 332 332 331 328 323 321 318 310 303 303 304 303 301 303 306 279 301 282 266 190 176 179 177 180 191 206 207 213 241 229 251 252 256 253 259 265 263 255 256 258 246 257 267 255
335 330 328 327 327 324 318 315 311 308 305 299 298 298 302 261 251 273 264 153 170 175 185 185 189 204 218 209 197 232 249 250 253 256 255 265 266 268 262 259 257 258 263 261 262
331 326 326 325 324 321 317 312 311 311 303 297 293 288 265 256 256 242 244 221 189 186 193 196 204 210 236 217 216 177 239 252 250 252 254 253 264 261 262 254 247 251 251 253 256
331 325 322 322 321 320 317 314 311 312 303 293 280 255 242 243 259 237 217 211 204 198 205 205 213 192 201 199 222 228 248 242 235 241 239 263 254 251 255 250 245 251 251 250 251
329 327 324 320 318 318 315 313 313 312 304 293 246 201 246 255 233 228 198 197 203 201 203 200 196 211 226 210 201 221 229 243 148 217 219 210 284 285 262 233 236 247 252 249 248
331 329 324 320 319 317 315 314 317 306 312 287 182 191 261 259 236 222 201 189 173 171 182 177 175 203 198 223 211 203 239 198 236 68 151 211 286 307 297 250 233 238 247 244 245
331 328 325 321 319 317 316 315 313 322 2 127 171 212 248 231 212 200 194 186 162 154 146 171 190 206 212 204 220 215 214 214 234 142 217 246 266 278 277 246 235 237 245 238 235
332 330 326 322 321 318 319 324 272 216 213 220 233 235 290 240 187 175 174 166 168 176 185 186 197 207 205 210 240 257 250 249 259 261 273 275 274 287 287 257 243 236 244 231 226
327 327 325 322 319 314 312 243 305 290 291 261 247 242 248 280 227 175 169 171 174 191 183 176 223 207 210 206 229 239 251 253 267 270 259 265 292 283 267 266 268 233 224 223 214
326 324 325 321 321 315 296 289 280 291 268 288 231 237 231 206 219 172 180 191 189 199 192 218 204 188 200 197 218 230 248 258 267 268 280 260 268 252 215 233 258 277 256 218 214
323 321 326 321 337 300 306 293 273 242 275 163 205 218 177 189 222 190 192 189 195 201 194 225 199 192 196 212 216 243 230 248 268 266 260 182 273 144 232 278 208 32 22 7 238
320 319 323 320 303 297 280 289 129 180 285 106 139 177 166 194 122 175 184 198 201 203 198 207 213 210 211 210 218 254 254 257 254 253 259 244 244 266 163 240 186 173 0 4 347
319 318 318 314 289 302 252 232 236 236 246 146 129 188 176 205 218 151 184 208 219 210 208 217 209 218 221 215 221 177 240 230 252 251 241 242 243 250 224 222 154 126 1 4 347
320 317 309 291 264 257 218 187 229 244 68 160 146 331 249 188 178 175 178 201 203 207 211 215 215 216 233 199 199 213 234 227 217 219 242 224 228 245 69 117 328 333 345 4 3
322 320 317 288 251 180 158 214 242 273 269 71 46 257 299 197 202 188 192 197 209 205 206 214 210 215 209 225 228 210 226 245 235 238 232 143 228 229 101 122 101 18 5 8 18
326 327 306 273 196 182 193 218 257 280 352 277 98 74 272 187 211 212 198 204 194 204 214 212 215 153 199 217 224 220 226 247 277 269 286 259 168 203 169 165 160 100 65 42 36
332 327 287 285 185 178 223 248 253 260 327 262 272 134 301 261 231 205 203 211 196 205 217 237 199 213 148 190 205 242 247 207 227 254 245 233 226 272 172 178 152 124 77 64 57
335 312 298 215 153 196 232 237 254 269 288 286 238 147 135 348 342 248 198 127 83 169 214 215 245 185 188 208 199 183 224 234 293 271 252 260 281 27 62 114 167 125 101 82 73
349 292 2 142 223 219 241 222 260 270 165 197 336 189 174 135 324 22 324 28 2 240 192 208 204 264 234 40 268 271 278 275 222 246 261 287 271 89 85 86 191 158 143 117 96
327 278 242 258 257 242 258 249 239 271 251 176 160 292 171 172 169 199 190 189 316 272 184 184 205 223 219 210 213 236 214 252 254 253 237 241 249 108 100 125 165 231 156 209 267
316 299 173 216 276 297 294 271 237 220 156 182 145 267 173 181 179 174 159 158 155 107 52 255 214 230 276 352 191 212 224 231 239 249 255 250 251 159 162 228 253 256 263 257 270
301 27 358 315 273 318 296 285 279 205 119 166 171 228 229 218 193 176 164 150 142 118 94 272 252 246 176 297 324 293 222 210 237 253 261 273 286 295 301 297 288 288 281 272 268
321 336 325 287 282 294 276 265 275 217 242 198 237 169 170 228 350 325 207 217 130 151 171 152 227 268 259 258 270 266 256 252 255 260 266 268 274 271 299 312 297 300 293 275 265
310 297 292 292 278 289 319 326 327 287 153 305 214 170 139 98 81 51 68 76 81 227 167 207 226 233 256 91 281 262 246 241 249 250 265 259 327 1 331 358 343 1 16 40 77
Wind_Speed_850mb
29 29 29 31 33 33 32 32 32 33 35 38 42 40 38 39 42 43 44 24 22 20 27 16 33 33 24 23 18 17 17 26 34 31 29 10 25 32 37 28 29 27 19 19 9
31 30 30 30 30 32 34 34 33 33 33 34 37 39 40 44 47 53 42 36 36 31 30 30 34 36 30 30 20 27 23 30 17 18 23 31 29 27 32 33 41 35 16 2 6
34 32 31 32 33 34 33 34 36 38 38 39 38 37 35 36 35 16 10 23 33 41 29 27 29 34 27 26 29 23 29 19 19 30 31 36 40 37 37 40 42 36 23 10 8
34 34 34 35 35 35 37 38 37 39 41 44 43 41 37 25 14 9 8 9 34 41 32 29 34 32 24 23 29 20 27 30 25 25 32 37 41 42 42 53 47 44 25 32 29
36 34 34 36 39 40 40 40 43 44 43 45 47 46 33 21 47 33 18 7 33 39 39 38 35 31 26 23 23 30 25 27 33 37 41 44 45 44 56 53 54 57 50 50 48
37 35 37 39 42 42 43 45 46 47 45 50 53 39 19 36 22 33 32 31 25 35 35 36 22 26 15 21 29 14 23 29 32 37 34 39 41 43 38 24 49 66 70 63 55
41 38 38 42 45 46 47 49 50 51 54 50 37 22 28 59 17 22 25 38 34 33 27 33 21 24 16 14 19 20 24 28 34 40 30 19 31 47 65 59 57 60 57 59 60
42 42 42 45 48 49 51 51 52 59 49 35 22 21 28 21 33 36 24 28 32 32 23 27 25 24 19 4 17 26 21 22 11 14 28 15 26 30 29 42 54 61 57 58 60
43 44 45 47 51 53 55 55 57 39 21 13 19 21 22 18 37 42 41 24 32 27 20 31 24 22 18 24 23 20 20 17 11 5 6 21 26 20 13 25 36 49 49 50 54
48 49 50 50 52 54 58 58 34 9 5 18 6 14 25 10 15 28 48 36 39 35 30 27 24 19 21 23 25 26 25 17 15 14 9 16 33 34 29 25 32 38 41 43 49
49 51 52 50 52 54 59 36 4 10 25 26 21 20 8 6 12 26 56 49 36 42 27 37 24 33 38 35 29 9 16 19 21 16 20 28 24 29 27 20 29 35 35 37 43
52 54 52 51 52 56 39 7 12 15 30 43 52 50 41 17 15 25 63 37 42 35 26 19 33 27 21 26 25 21 21 24 23 12 10 17 29 28 20 16 13 21 24 26 39
59 59 57 56 54 39 14 34 21 10 18 20 28 38 39 33 19 44 68 46 40 37 33 25 5 25 28 25 24 25 26 24 26 22 25 29 31 29 14 13 6 12 10 12 28
61 60 57 60 24 15 41 13 11 13 12 17 14 12 26 23 18 45 68 51 28 36 34 28 21 22 33 29 26 26 24 26 28 26 21 10 22 9 3 12 11 0 7 9 14
64 61 58 47 57 33 13 9 5 6 12 12 14 8 26 29 22 46 64 51 32 28 24 25 24 33 28 32 26 26 17 19 25 26 27 30 18 22 5 22 14 5 6 15 15
63 63 59 50 33 30 18 9 8 13 13 8 10 13 21 35 12 38 48 47 39 24 34 29 26 26 35 31 21 6 15 18 19 23 26 32 31 24 19 13 5 2 11 15 17
61 55 54 48 25 16 19 14 12 16 6 3 5 11 18 26 28 19 33 38 27 32 33 27 26 23 17 22 29 19 17 15 21 21 23 13 15 23 11 5 5 9 12 15 15
64 55 45 29 21 14 30 15 19 10 12 8 7 7 15 22 33 41 48 40 45 38 21 25 27 36 30 36 27 32 27 21 19 20 20 16 14 10 10 7 2 4 7 12 17
63 43 21 9 23 36 24 21 12 7 8 3 10 10 8 11 14 33 33 45 41 36 22 23 25 11 16 34 38 32 18 28 30 18 18 12 19 12 16 14 8 5 8 14 20
58 35 7 18 22 41 17 30 11 15 16 9 9 8 4 13 23 27 31 10 24 33 37 18 8 25 22 14 14 30 12 21 20 33 34 21 16 15 21 16 8 7 9 14 17
28 19 12 8 31 32 19 24 17 27 10 11 10 10 6 12 17 2 15 11 2 17 23 23 19 16 17 23 20 17 22 21 18 11 21 23 5 22 14 5 7 7 9 11 15
18 8 10 25 16 25 23 15 4 20 6 6 19 7 12 12 6 15 8 10 7 10 21 10 9 14 22 8 5 11 19 14 17 27 15 19 14 10 8 4 4 8 8 9 8
27 12 11 15 11 19 22 19 19 13 10 11 13 17 9 16 9 19 12 3 7 6 10 13 11 15 11 24 18 20 23 19 12 9 23 19 8 10 13 5 5 6 9 2 3
13 8 6 14 14 19 23 24 14 6 6 5 9 13 14 14 9 13 14 6 4 10 10 4 12 12 2 6 4 22 21 26 23 19 25 25 24 21 12 6 8 10 17 20 14
6 5 4 7 6 19 18 21 16 8 3 8 11 25 11 7 9 10 9 16 8 6 5 2 11 10 2 1 3 5 12 19 21 21 22 21 24 20 21 25 32 39 36 36 35
10 12 20 35 20 19 13 18 17 9 7 15 14 15 7 3 3 0 4 7 2 6 5 1 9 12 22 8 17 25 28 30 31 30 31 30 32 28 20 24 25 23 28 31 33
11 14 12 20 12 16 6 18 14 7 3 12 11 14 12 11 8 7 7 7 6 2 7 7 9 10 18 4 12 21 31 35 32 27 21 24 8 15 12 12 10 9 12 11 11
Wind_Direction_850mb
333 328 324 321 320 318 315 312 310 308 308 310 311 311 310 307 303 298 278 273 256 246 223 187 180 194 196 207 210 217 243 243 241 242 254 228 252 250 256 262 245 249 274 305 271
340 336 332 327 322 318 317 315 312 309 307 305 304 307 310 313 308 285 292 252 238 221 192 167 168 174 189 204 203 214 231 246 260 275 259 268 257 263 266 253 241 238 218 15 103
339 337 335 332 328 324 320 314 311 310 308 307 306 303 304 315 307 271 248 253 225 196 187 189 180 175 197 196 203 216 248 255 233 247 257 266 265 258 253 254 242 243 209 244 228
334 332 332 331 328 323 321 318 310 303 303 304 303 301 303 306 279 301 282 266 190 176 179 177 180 191 206 207 213 241 229 251 252 256 253 259 265 263 255 256 258 246 257 267 255
335 330 328 327 327 324 318 315 311 308 305 299 298 298 302 261 251 273 264 153 170 175 185 185 189 204 218 209 197 232 249 250 253 256 255 265 266 268 262 259 257 258 263 261 262
331 326 326 325 324 321 317 312 311 311 303 297 293 288 265 256 256 242 244 221 189 186 193 196 204 210 236 217 216 177 239 252 250 252 254 253 264 261 262 254 247 251 251 253 256
331 325 322 322 321 320 317 314 311 312 303 293 280 255 242 243 259 237 217 211 204 198 205 205 213 192 201 199 222 228 248 242 235 241 239 263 254 251 255 250 245 251 251 250 251
329 327 324 320 318 318 315 313 313 312 304 293 246 201 246 255 233 228 198 197 203 201 203 200 196 211 226 210 201 221 229 243 148 217 219 210 284 285 262 233 236 247 252 249 248
331 329 324 320 319 317 315 314 317 306 312 287 182 191 261 259 236 222 201 189 173 171 182 177 175 203 198 223 211 203 239 198 236 68 151 211 286 307 297 250 233 238 247 244 245
331 328 325 321 319 317 316 315 313 322 2 127 171 212 248 231 212 200 194 186 162 154 146 171 190 206 212 204 220 215 214 214 234 142 217 246 266 278 277 246 235 237 245 238 235
332 330 326 322 321 318 319 324 272 216 213 220 233 235 290 240 187 175 174 166 168 176 185 186 197 207 205 210 240 257 250 249 259 261 273 275 274 287 287 257 243 236 244 231 226
327 327 325 322 319 314 312 243 305 290 291 261 247 242 248 280 227 175 169 171 174 191 183 176 223 207 210 206 229 239 251 253 267 270 259 265 292 283 267 266 268 233 224 223 214
326 324 325 321 321 315 296 289 280 291 268 288 231 237 231 206 219 172 180 191 189 199 192 218 204 188 200 197 218 230 248 258 267 268 280 260 268 252 215 233 258 277 256 218 214
323 321 326 321 337 300 306 293 273 242 275 163 205 218 177 189 222 190 192 189 195 201 194 225 199 192 196 212 216 243 230 248 268 266 260 182 273 144 232 278 208 32 22 7 238
320 319 323 320 303 297 280 289 129 180 285 106 139 177 166 194 122 175 184 198 201 203 198 207 213 210 211 210 218 254 254 257 254 253 259 244 244 266 163 240 186 173 0 4 347
319 318 318 314 289 302 252 232 236 236 246 146 129 188 176 205 218 151 184 208 219 210 208 217 209 218 221 215 221 177 240 230 252 251 241 242 243 250 224 222 154 126 1 4 347
320 317 309 291 264 257 218 187 229 244 68 160 146 331 249 188 178 175 178 201 203 207 211 215 215 216 233 199 199 213 234 227 217 219 242 224 228 245 69 117 328 333 345 4 3
322 320 317 288 251 180 158 214 242 273 269 71 46 257 299 197 202 188 192 197 209 205 206 214 210 215 209 225 228 210 226 245 235 238 232 143 228 229 101 122 101 18 5 8 18
326 327 306 273 196 182 193 218 257 280 352 277 98 74 272 187 211 212 198 204 194 204 214 212 215 153 199 217 224 220 226 247 277 269 286 259 168 203 169 165 160 100 65 42 36
332 327 287 285 185 178 223 248 253 260 327 262 272 134 301 261 231 205 203 211 196 205 217 237 199 213 148 190 205 242 247 207 227 254 245 233 226 272 172 178 152 124 77 64 57
335 312 298 215 153 196 232 237 254 269 288 286 238 147 135 348 342 248 198 127 83 169 214 215 245 185 188 208 199 183 224 234 293 271 252 260 281 27 62 114 167 125 101 82 73
349 292 2 142 223 219 241 222 260 270 165 197 336 189 174 135 324 22 324 28 2 240 192 208 204 264 234 40 268 271 278 275 222 246 261 287 271 89 85 86 191 158 143 117 96
327 278 242 258 257 242 258 249 239 271 251 176 160 292 171 172 169 199 190 189 316 272 184 184 205 223 219 210 213 236 214 252 254 253 237 241 249 108 100 125 165 231 156 209 267
316 299 173 216 276 297 294 271 237 220 156 182 145 267 173 181 179 174 159 158 155 107 52 255 214 230 276 352 191 212 224 231 239 249 255 250 251 159 162 228 253 256 263 257 270
301 27 358 315 273 318 296 285 279 205 119 166 171 228 229 218 193 176 164 150 142 118 94 272 252 246 176 297 324 293 222 210 237 253 261 273 286 295 301 297 288 288 281 272 268
321 336 325 287 282 294 276 265 275 217 242 198 237 169 170 228 350 325 207 217 130 151 171 152 227 268 259 258 270 266 256 252 255 260 266 268 274 271 299 312 297 300 293 275 265
310 297 292 292 278 289 319 326 327 287 153 305 214 170 139 98 81 51 68 76 81 227 167 207 226 233 256 91 281 262 246 241 249 250 265 259 327 1 331 358 343 1 16 40 77